Date Time,Air Temp,Sky Temp,Clarity,Light Level,Rain Sensor,Readings
2012-02-24 00:00:12,16.8,3.0,13.8,0.0,2.3,112
2012-02-24 00:05:12,16.8,1.9,14.9,0.0,2.3,111
2012-02-24 00:10:12,16.8,2.4,14.3,0.0,2.3,111
2012-02-24 00:15:12,16.7,2.4,14.3,0.0,2.3,111
2012-02-24 00:20:12,16.7,3.2,13.5,0.0,2.3,111
2012-02-24 00:25:12,16.7,2.8,13.9,0.0,2.3,111
2012-02-24 00:30:12,16.7,1.9,14.8,0.0,2.3,112
2012-02-24 00:35:12,16.7,1.6,15.0,0.0,2.3,111
2012-02-24 00:40:12,16.6,2.4,14.2,0.0,2.3,111
2012-02-24 00:45:12,16.6,2.3,14.3,0.0,2.3,111
2012-02-24 00:50:12,16.6,2.8,13.7,0.0,2.3,112
2012-02-24 00:55:12,16.6,1.8,14.7,0.0,2.3,111
2012-02-24 01:00:12,16.5,2.2,14.4,0.0,2.3,112
2012-02-24 01:05:12,16.5,1.0,15.5,0.0,2.3,111
2012-02-24 01:10:12,16.5,1.6,14.9,0.0,2.3,111
2012-02-24 01:15:12,16.5,2.8,13.6,0.0,2.3,111
2012-02-24 01:20:12,16.5,3.3,13.2,0.0,2.3,112
2012-02-24 01:25:12,16.5,2.6,13.9,0.0,2.3,111
2012-02-24 01:30:12,16.5,2.7,13.8,0.0,2.3,112
2012-02-24 01:35:12,16.5,2.7,13.9,0.0,2.3,111
2012-02-24 01:40:12,16.5,3.4,13.1,0.0,2.3,112
2012-02-24 01:45:12,16.6,3.4,13.2,0.0,2.3,111
2012-02-24 01:50:12,16.5,3.7,12.8,0.0,2.3,112
2012-02-24 01:55:12,16.6,4.1,12.4,0.0,2.3,111
2012-02-24 02:00:12,16.6,5.0,11.6,0.0,2.3,112
2012-02-24 02:05:12,16.6,5.3,11.3,0.0,2.3,112
2012-02-24 02:10:12,16.6,4.9,11.8,0.0,2.3,111
2012-02-24 02:15:12,16.6,4.9,11.7,0.0,2.3,112
2012-02-24 02:20:12,16.6,5.0,11.6,0.0,2.3,112
2012-02-24 02:25:12,16.6,5.2,11.5,0.0,2.3,111
2012-02-24 02:30:12,16.6,5.2,11.4,0.0,2.3,112
2012-02-24 02:35:12,16.6,5.0,11.6,0.0,2.3,112
2012-02-24 02:40:12,16.5,5.1,11.4,0.0,2.3,112
2012-02-24 02:45:12,16.5,4.7,11.8,0.0,2.3,112
2012-02-24 02:50:12,16.4,4.2,12.2,0.0,2.2,112
2012-02-24 02:55:12,16.3,4.2,12.1,0.0,2.1,111
2012-02-24 03:00:12,16.3,4.3,11.9,0.0,2.1,112
2012-02-24 03:05:12,16.2,4.6,11.6,0.0,2.1,111
2012-02-24 03:10:12,16.2,4.5,11.6,0.0,2.2,112
2012-02-24 03:15:12,16.2,4.7,11.5,0.0,2.2,111
2012-02-24 03:20:12,16.2,4.6,11.6,0.0,2.2,112
2012-02-24 03:25:12,16.2,4.7,11.5,0.0,2.3,111
2012-02-24 03:30:12,16.2,4.6,11.6,0.0,2.2,112
2012-02-24 03:35:12,16.2,4.5,11.7,0.0,2.2,112
2012-02-24 03:40:12,16.2,4.6,11.6,0.0,2.3,111
2012-02-24 03:45:12,16.2,4.5,11.7,0.0,2.4,112
2012-02-24 03:50:12,16.2,4.5,11.7,0.0,2.5,111
2012-02-24 03:55:12,16.2,3.9,12.3,0.0,2.5,112
2012-02-24 04:00:12,16.2,4.1,12.1,0.0,2.4,112
2012-02-24 04:05:12,16.1,4.0,12.1,0.0,2.4,111
2012-02-24 04:10:12,16.1,4.4,11.8,0.0,2.4,112
2012-02-24 04:15:12,16.1,4.6,11.5,0.0,2.4,112
2012-02-24 04:20:12,16.2,4.7,11.5,0.0,2.4,111
2012-02-24 04:25:12,16.2,4.6,11.6,0.0,2.4,112
2012-02-24 04:30:12,16.1,4.2,11.9,0.0,2.4,111
2012-02-24 04:35:12,16.1,4.3,11.7,0.0,2.4,112
2012-02-24 04:40:12,16.1,4.4,11.7,0.0,2.4,112
2012-02-24 04:45:12,16.0,4.3,11.7,0.0,2.4,112
2012-02-24 04:50:12,16.0,3.4,12.6,0.0,2.4,111
2012-02-24 04:55:12,16.0,4.2,11.8,0.0,2.4,112
2012-02-24 05:00:12,16.0,4.7,11.3,0.0,2.4,111
2012-02-24 05:05:12,16.0,4.6,11.4,0.0,2.5,112
2012-02-24 05:10:12,16.1,4.0,12.0,0.0,2.5,112
2012-02-24 05:15:12,16.1,4.0,12.1,0.0,2.4,111
2012-02-24 05:20:12,16.1,4.8,11.3,0.0,2.5,111
2012-02-24 05:25:12,16.1,4.7,11.3,0.0,2.4,112
2012-02-24 05:30:12,16.1,4.9,11.2,0.0,2.3,112
2012-02-24 05:35:12,16.1,4.9,11.2,0.0,2.3,111
2012-02-24 05:40:12,16.1,5.3,10.8,0.0,2.3,112
2012-02-24 05:45:12,16.1,5.4,10.8,0.0,2.3,112
2012-02-24 05:50:12,16.1,5.2,10.9,0.0,2.3,112
2012-02-24 05:55:12,16.1,5.4,10.8,0.0,2.3,112
2012-02-24 06:00:12,16.1,5.2,11.0,0.0,2.3,111
2012-02-24 06:05:12,16.1,5.6,10.5,0.0,2.3,112
2012-02-24 06:10:12,16.1,5.0,11.1,0.2,2.2,112
2012-02-24 06:15:12,16.0,5.0,11.0,0.4,2.3,112
2012-02-24 06:20:12,16.0,4.9,11.1,1.0,2.3,111
2012-02-24 06:25:12,16.0,5.0,11.0,2.2,2.3,112
2012-02-24 06:30:12,16.0,5.0,11.0,4.7,2.3,111
2012-02-24 06:35:12,16.0,5.0,11.0,7.2,2.3,112
2012-02-24 06:40:12,16.0,4.8,11.2,11.8,2.3,112
2012-02-24 06:45:12,15.9,4.4,11.5,17.8,2.4,112
2012-02-24 06:50:12,15.9,4.2,11.7,23.2,2.4,111
2012-02-24 06:55:12,15.9,4.0,11.9,25.5,2.6,112
2012-02-24 07:00:12,15.8,4.2,11.7,27.9,2.6,111
2012-02-24 07:05:12,15.9,4.4,11.4,28.7,2.6,112
2012-02-24 07:10:12,15.9,4.9,11.0,29.5,2.6,111
2012-02-24 07:15:12,15.9,4.8,11.1,29.8,2.6,112
2012-02-24 07:20:12,15.9,4.8,11.1,30.5,2.5,112
2012-02-24 07:25:12,15.8,4.7,11.1,31.2,2.4,112
2012-02-24 07:30:12,15.8,4.7,11.1,31.2,2.4,111
2012-02-24 07:35:12,15.8,4.4,11.4,31.4,2.5,112
2012-02-24 07:40:12,15.8,3.9,11.9,31.8,2.5,112
2012-02-24 07:45:12,15.7,4.2,11.5,31.8,2.4,111
2012-02-24 07:50:12,15.7,3.9,11.9,32.0,2.5,112
2012-02-24 07:55:12,15.7,4.0,11.7,32.0,2.5,111
2012-02-24 08:00:12,15.8,4.2,11.6,32.1,2.5,112
2012-02-24 08:05:12,15.8,4.2,11.6,32.1,2.5,111
2012-02-24 08:10:12,15.8,4.3,11.6,32.2,2.6,112
2012-02-24 08:15:12,15.9,4.2,11.7,32.2,2.7,112
2012-02-24 08:20:12,16.0,4.4,11.6,32.2,2.7,112
2012-02-24 08:25:12,16.0,4.4,11.6,32.2,2.7,111
2012-02-24 08:30:12,16.1,4.6,11.5,32.3,2.6,111
2012-02-24 08:35:12,16.1,4.4,11.7,32.3,2.4,112
2012-02-24 08:40:12,16.2,4.5,11.7,32.3,2.3,112
2012-02-24 08:45:12,16.3,4.4,11.9,32.3,2.3,112
2012-02-24 08:50:12,16.3,4.5,11.8,32.4,2.2,111
2012-02-24 08:55:12,16.4,4.4,12.0,32.4,2.2,112
2012-02-24 09:00:12,16.5,4.1,12.4,32.4,2.3,111
2012-02-24 09:05:12,16.7,4.5,12.2,32.4,2.3,112
2012-02-24 09:10:12,16.8,3.8,13.0,32.4,2.3,111
2012-02-24 09:15:12,16.9,4.4,12.4,32.5,2.3,112
2012-02-24 09:20:12,17.0,3.6,13.3,32.5,2.5,111
2012-02-24 09:25:12,17.1,4.2,12.9,32.5,2.6,112
2012-02-24 09:30:12,17.2,4.2,13.0,32.4,2.7,111
2012-02-24 09:35:12,17.1,4.8,12.3,32.4,2.7,111
2012-02-24 09:40:12,17.1,4.4,12.7,32.4,2.6,112
2012-02-24 09:45:12,17.0,3.3,13.7,32.4,2.6,111
2012-02-24 09:50:12,17.0,3.8,13.2,32.4,2.5,111
2012-02-24 09:55:12,17.1,3.0,14.1,32.5,2.6,112
2012-02-24 10:00:12,17.4,3.0,14.5,32.5,2.4,111
2012-02-24 10:05:12,17.6,2.1,15.5,32.5,2.3,112
2012-02-24 10:10:12,17.7,2.9,14.8,32.5,2.3,111
2012-02-24 10:15:12,17.9,4.0,13.9,32.5,2.3,111
2012-02-24 10:20:12,18.0,0.6,17.4,32.5,2.3,112
2012-02-24 10:25:12,18.3,0.3,18.0,32.5,2.3,111
2012-02-24 10:30:12,19.9,-0.7,20.6,32.5,2.2,112
2012-02-24 10:35:12,21.1,0.7,20.4,32.6,2.3,111
2012-02-24 10:40:12,21.9,1.0,20.9,32.6,2.4,111
2012-02-24 10:45:12,22.8,2.7,20.2,32.6,2.3,112
2012-02-24 10:50:12,21.4,4.5,16.9,32.5,2.3,111
2012-02-24 10:55:12,20.3,5.2,15.0,32.5,2.6,112
2012-02-24 11:00:12,19.5,4.0,15.5,32.5,2.4,111
2012-02-24 11:05:12,18.9,3.3,15.7,32.5,2.2,112
2012-02-24 11:10:12,19.9,1.9,18.0,32.6,2.3,111
2012-02-24 11:15:12,21.5,1.6,20.0,32.6,2.5,112
2012-02-24 11:20:12,21.9,3.0,18.9,32.6,2.3,112
2012-02-24 11:25:12,21.1,2.1,19.1,32.6,2.3,111
2012-02-24 11:30:12,21.3,4.3,17.0,32.6,2.3,112
2012-02-24 11:35:12,20.5,3.8,16.8,32.5,2.5,112
2012-02-24 11:40:12,19.7,4.0,15.6,32.6,2.4,111
2012-02-24 11:45:12,19.7,4.5,15.3,32.6,2.4,111
2012-02-24 11:50:12,20.2,2.5,17.7,32.6,2.6,111
2012-02-24 11:55:12,20.4,3.6,16.8,32.6,2.7,112
2012-02-24 12:00:12,21.2,0.4,20.7,32.6,2.4,111
2012-02-24 12:05:12,24.4,-1.6,26.0,32.6,2.3,112
2012-02-24 12:10:12,25.3,-3.2,28.5,32.6,2.3,112
2012-02-24 12:15:12,25.8,1.5,24.3,32.6,2.3,111
2012-02-24 12:20:12,25.9,3.8,22.0,32.6,2.3,112
2012-02-24 12:25:12,24.5,4.2,20.4,32.6,2.3,111
2012-02-24 12:30:12,23.9,3.5,20.4,32.6,2.3,111
2012-02-24 12:35:12,22.5,2.3,20.2,32.6,2.5,111
2012-02-24 12:40:12,22.2,3.8,18.5,32.6,2.4,111
2012-02-24 12:45:12,21.1,4.9,16.2,32.5,2.3,112
2012-02-24 12:50:12,20.1,3.3,16.8,32.5,2.3,111
2012-02-24 12:55:12,19.6,2.0,17.6,32.5,2.6,111
2012-02-24 13:00:12,19.3,2.2,17.1,32.6,2.4,111
2012-02-24 13:05:12,21.2,-1.0,22.2,32.6,2.4,112
2012-02-24 13:10:12,23.3,-0.4,23.8,32.6,2.3,112
2012-02-24 13:15:12,24.1,-1.1,25.2,32.6,2.4,111
2012-02-24 13:20:13,24.5,-0.8,25.3,32.6,2.4,112
2012-02-24 13:25:13,24.6,-0.5,25.1,32.6,2.3,112
2012-02-24 13:30:13,24.7,0.4,24.4,32.6,2.3,111
2012-02-24 13:35:13,25.0,1.0,24.0,32.6,2.3,112
2012-02-24 13:40:13,25.1,-0.0,25.2,32.6,2.3,112
2012-02-24 13:45:13,25.3,1.0,24.3,32.6,2.3,111
2012-02-24 13:50:13,25.7,3.6,22.2,32.6,2.3,111
2012-02-24 13:55:13,26.1,2.6,23.5,32.6,2.3,112
2012-02-24 14:00:13,25.7,2.5,23.3,32.6,2.3,111
2012-02-24 14:05:13,25.4,2.6,22.8,32.5,2.3,111
2012-02-24 14:10:13,25.2,2.8,22.3,32.5,2.3,111
2012-02-24 14:15:13,24.9,2.9,22.1,32.5,2.3,111
2012-02-24 14:20:13,24.8,3.8,21.0,32.5,2.3,112
2012-02-24 14:25:13,24.7,3.2,21.4,32.5,2.2,111
2012-02-24 14:30:13,24.6,3.4,21.1,32.5,2.3,111
2012-02-24 14:35:13,24.5,3.1,21.4,32.5,2.3,112
2012-02-24 14:40:13,24.5,3.1,21.4,32.5,2.3,111
2012-02-24 14:45:13,24.4,2.8,21.7,32.5,2.3,111
2012-02-24 14:50:13,24.4,2.7,21.6,32.4,2.3,111
2012-02-24 14:55:13,24.2,2.8,21.4,32.4,2.3,112
2012-02-24 15:00:13,24.0,2.8,21.2,32.4,2.3,110
2012-02-24 15:05:13,24.0,2.6,21.5,32.4,2.3,111
2012-02-24 15:10:13,24.1,2.8,21.3,32.4,2.4,112
2012-02-24 15:15:13,24.2,2.6,21.6,32.4,2.4,111
2012-02-24 15:20:13,24.1,2.6,21.6,32.4,2.5,112
2012-02-24 15:25:13,24.1,2.8,21.4,32.4,2.6,111
2012-02-24 15:30:13,24.2,2.7,21.5,32.4,2.6,111
2012-02-24 15:35:13,24.2,2.7,21.5,32.4,2.6,111
2012-02-24 15:40:13,24.1,2.6,21.5,32.4,2.5,111
2012-02-24 15:45:13,24.0,2.8,21.2,32.4,2.6,111
2012-02-24 15:50:13,24.0,2.7,21.4,32.4,2.5,111
2012-02-24 15:55:13,24.0,2.8,21.2,32.4,2.5,112
2012-02-24 16:00:13,24.0,2.7,21.3,32.4,2.5,111
2012-02-24 16:05:13,24.1,2.8,21.2,32.4,2.6,111
2012-02-24 16:10:13,24.0,3.1,20.9,32.3,2.6,112
2012-02-24 16:15:13,24.0,3.3,20.7,32.3,2.5,111
2012-02-24 16:20:13,23.9,3.2,20.7,32.3,2.4,111
2012-02-24 16:25:13,23.9,3.2,20.7,32.2,2.4,112
2012-02-24 16:30:13,22.5,3.9,18.6,32.2,2.3,111
2012-02-24 16:35:13,20.1,3.9,16.2,32.1,2.5,112
2012-02-24 16:40:13,19.3,3.0,16.3,32.1,2.4,111
2012-02-24 16:45:13,18.9,3.3,15.6,32.1,2.3,111
2012-02-24 16:50:13,18.7,3.1,15.6,32.0,2.1,111
2012-02-24 16:55:13,18.5,3.1,15.4,32.0,1.9,112
2012-02-24 17:00:13,18.4,3.1,15.3,32.0,1.8,111
2012-02-24 17:05:13,18.4,3.1,15.3,31.9,1.8,111
2012-02-24 17:10:13,18.3,2.8,15.5,31.7,1.8,111
2012-02-24 17:15:13,18.3,2.6,15.7,31.5,1.9,111
2012-02-24 17:20:13,18.2,2.7,15.5,31.2,2.1,111
2012-02-24 17:25:13,18.1,2.8,15.3,30.8,2.3,112
2012-02-24 17:30:13,18.1,2.7,15.4,30.2,2.3,111
2012-02-24 17:35:13,18.0,2.7,15.3,29.4,2.3,111
2012-02-24 17:40:13,18.0,3.4,14.6,28.1,2.3,112
2012-02-24 17:45:13,18.0,3.6,14.4,26.3,2.3,112
2012-02-24 17:50:13,18.0,2.9,15.1,23.4,2.3,111
2012-02-24 17:55:13,18.0,2.5,15.4,18.8,2.3,111
2012-02-24 18:00:13,17.9,3.6,14.3,12.3,2.3,112
2012-02-24 18:05:13,17.9,5.1,12.8,6.8,2.3,111
2012-02-24 18:10:13,17.8,4.9,13.0,3.7,2.3,112
2012-02-24 18:15:13,17.8,4.7,13.1,1.9,2.3,112
2012-02-24 18:20:13,17.8,3.9,13.9,1.1,2.3,112
2012-02-24 18:25:13,17.7,4.9,12.8,0.6,2.3,111
2012-02-24 18:30:13,17.6,3.6,14.0,0.4,2.3,112
2012-02-24 18:35:13,17.6,3.6,14.0,0.3,2.3,111
2012-02-24 18:40:13,17.6,4.5,13.1,0.2,2.3,112
2012-02-24 18:45:13,17.5,5.1,12.5,0.1,2.3,112
2012-02-24 18:50:13,17.5,4.7,12.8,0.1,2.3,111
2012-02-24 18:55:13,17.5,3.3,14.1,0.1,2.3,112
2012-02-24 19:00:13,17.4,2.9,14.4,0.1,2.3,111
2012-02-24 19:05:13,17.6,1.8,15.8,0.1,2.3,111
2012-02-24 19:10:13,17.2,1.6,15.6,0.1,2.3,111
2012-02-24 19:15:13,17.1,1.4,15.7,0.1,2.5,111
2012-02-24 19:20:13,17.0,1.3,15.7,0.1,2.7,112
2012-02-24 19:25:13,17.0,1.6,15.4,0.1,2.7,111
2012-02-24 19:30:13,17.0,1.5,15.4,0.1,2.6,110
2012-02-24 19:35:13,16.9,1.6,15.3,0.1,2.5,111
2012-02-24 19:40:13,16.9,2.0,14.9,0.1,2.5,112
2012-02-24 19:45:13,16.9,2.1,14.8,0.1,2.6,111
2012-02-24 19:50:13,16.6,2.0,14.7,0.1,2.7,111
2012-02-24 19:55:13,16.9,2.8,14.1,0.1,2.6,111
2012-02-24 20:00:13,16.9,3.3,13.7,0.1,2.5,112
2012-02-24 20:05:13,17.0,3.3,13.7,0.1,2.5,111
2012-02-24 20:10:13,17.0,4.0,13.0,0.1,2.5,112
2012-02-24 20:15:13,17.0,4.8,12.2,0.1,2.5,111
2012-02-24 20:20:13,17.0,5.3,11.7,0.1,2.6,112
2012-02-24 20:25:13,17.0,5.0,12.0,0.1,2.7,112
2012-02-24 20:30:13,17.0,4.6,12.4,0.1,2.7,111
2012-02-24 20:35:13,17.0,4.7,12.3,0.1,2.7,112
2012-02-24 20:40:13,17.0,4.4,12.6,0.1,2.7,112
2012-02-24 20:45:13,16.7,5.0,11.7,0.0,2.7,111
2012-02-24 20:50:13,17.0,4.7,12.3,0.0,2.7,112
2012-02-24 20:55:13,17.0,4.1,12.9,0.0,2.7,111
2012-02-24 21:00:13,17.0,4.3,12.7,0.0,2.6,112
2012-02-24 21:05:13,17.0,4.8,12.2,0.0,2.6,111
2012-02-24 21:10:13,17.0,5.4,11.6,0.0,2.6,112
2012-02-24 21:15:13,17.0,5.2,11.8,0.0,2.6,112
2012-02-24 21:20:13,17.0,5.1,11.9,0.0,2.6,112
2012-02-24 21:25:13,17.0,5.3,11.7,0.0,2.6,112
2012-02-24 21:35:03,16.9,3.0,13.9,0.0,2.5,90
2012-02-24 21:40:03,16.9,3.7,13.2,0.0,2.5,111
2012-02-24 21:45:03,16.9,3.5,13.4,0.0,2.5,112
2012-02-24 21:50:03,16.9,4.8,12.0,0.0,2.5,112
2012-02-24 21:55:03,16.9,4.9,12.0,0.0,2.5,112
2012-02-24 22:00:03,16.9,4.8,12.1,0.0,2.6,111
2012-02-24 22:05:03,16.9,3.0,13.9,0.0,2.5,112
2012-02-24 22:10:03,16.9,1.7,15.2,0.0,2.5,110
2012-02-24 22:15:03,16.9,3.2,13.7,0.0,2.4,112
2012-02-24 22:20:03,16.9,3.5,13.4,0.0,2.4,111
2012-02-24 22:25:03,16.9,4.1,12.8,0.0,2.4,111
2012-02-24 22:30:03,16.9,4.7,12.2,0.0,2.5,112
2012-02-24 22:35:03,16.9,4.8,12.0,0.0,2.5,112
2012-02-24 22:40:03,16.9,5.5,11.4,0.0,2.4,112
2012-02-24 22:45:03,16.9,5.5,11.4,0.0,2.4,111
2012-02-24 22:50:03,17.0,4.6,12.3,0.0,2.4,112
2012-02-24 22:55:03,17.0,5.7,11.3,0.0,2.4,111
2012-02-24 23:00:03,17.0,5.8,11.2,0.0,2.5,112
2012-02-24 23:05:03,17.1,5.4,11.6,0.0,2.5,112
2012-02-24 23:10:03,17.1,5.2,11.9,0.0,2.5,111
2012-02-24 23:15:03,17.1,5.9,11.2,0.0,2.5,112
2012-02-24 23:20:03,17.0,6.1,11.0,0.0,2.5,111
2012-02-24 23:25:03,17.0,6.1,10.9,0.0,2.6,112
2012-02-24 23:30:03,17.0,6.2,10.8,0.0,2.6,111
2012-02-24 23:35:03,17.0,6.4,10.6,0.0,2.6,111
2012-02-24 23:40:03,17.0,5.8,11.2,0.0,2.6,112
2012-02-24 23:45:03,16.7,6.2,10.5,0.0,2.4,111
2012-02-24 23:50:03,17.0,6.4,10.6,0.0,2.4,111
2012-02-24 23:55:03,17.0,6.2,10.8,0.0,2.4,112
